DW9151 Weather Reports


Display with metric or nautical units.
time (UTC)temp
F
wind
direction
speed
MPH
gust
MPH
rain 1hr
in
rain 24hr
in
rain mn
in
humidity
%
barometer
mb
20260509125632 49 15 6.0 10.0 0.00 0.00 0.00 84 1018.2
20260509125134 49 16 5.0 9.0 0.00 0.00 0.00 83 1018.2
20260509124633 48 15 5.0 9.0 0.00 0.00 0.00 84 1018.3
20260509124133 48 16 5.0 9.0 0.00 0.00 0.00 85 1018.3
20260509123132 48 17 3.0 14.0 0.00 0.00 0.00 87 1018.3
20260509122632 48 18 5.0 9.0 0.00 0.00 0.00 86 1018.2
20260509122133 49 17 5.0 10.0 0.00 0.00 0.00 85 1018.2
20260509121632 48 15 5.0 9.0 0.00 0.00 0.00 87 1018.2
20260509121132 48 16 4.0 8.0 0.00 0.00 0.00 86 1018.3
20260509120633 47 15 5.0 8.0 0.00 0.00 0.00 88 1018.3
20260509120133 47 15 4.0 9.0 0.00 0.00 0.00 88 1018.3
20260509115632 47 14 6.0 9.0 0.00 0.00 0.00 88 1018.3
20260509114632 48 14 5.0 9.0 0.00 0.00 0.00 87 1018.4
20260509114132 48 15 4.0 8.0 0.00 0.00 0.00 87 1018.5
20260509113632 48 16 2.0 7.0 0.00 0.00 0.00 88 1018.5
20260509113132 49 15 3.0 7.0 0.00 0.00 0.00 87 1018.6
20260509112632 49 15 4.0 7.0 0.00 0.00 0.00 87 1018.7
20260509112132 50 14 5.0 9.0 0.00 0.00 0.00 86 1018.7
20260509111632 49 14 3.0 7.0 0.00 0.00 0.00 87 1018.8
20260509111132 50 16 5.0 8.0 0.00 0.00 0.00 88 1018.9
20260509110632 50 16 5.0 9.0 0.00 0.00 0.00 86 1019.0
20260509110132 49 15 5.0 8.0 0.00 0.00 0.00 88 1019.1
20260509105632 48 17 4.0 10.0 0.00 0.00 0.00 87 1019.0
20260509105132 47 17 3.0 6.0 0.00 0.00 0.00 88 1019.1
20260509104132 46 15 5.0 7.0 0.00 0.00 0.00 88 1019.1
20260509103632 47 15 4.0 6.0 0.00 0.00 0.00 88 1019.2
20260509103132 48 14 2.0 6.0 0.00 0.00 0.00 87 1019.2
20260509102631 47 14 4.0 7.0 0.00 0.00 0.00 86 1019.2
20260509102132 47 14 6.0 9.0 0.00 0.00 0.00 88 1019.1
20260509101632 48 14 3.0 8.0 0.00 0.00 0.00 88 1019.2
20260509101132 48 15 5.0 7.0 0.00 0.00 0.00 88 1019.2
20260509100132 46 14 1.0 3.0 0.00 0.00 0.00 88 1019.1
20260509095631 46 16 2.0 5.0 0.00 0.00 0.00 88 1019.1
20260509095132 47 16 4.0 7.0 0.00 0.00 0.00 88 1019.0
20260509094632 49 17 2.0 3.0 0.00 0.00 0.00 87 1019.0
20260509094132 49 15 2.0 3.0 0.00 0.00 0.00 87 1019.0
20260509093632 49 18 1.0 3.0 0.00 0.00 0.00 88 1019.0
20260509093135 49 16 2.0 7.0 0.00 0.00 0.00 88 1019.0
20260509092632 48 15 5.0 9.0 0.00 0.00 0.00 88 1019.0
20260509090132 48 15 1.0 2.0 0.00 0.00 0.00 88 1019.1
20260509085632 48 15 3.0 6.0 0.00 0.00 0.00 88 1019.0
20260509085132 48 17 2.0 3.0 0.00 0.00 0.00 88 1019.1
20260509084632 47 18 3.0 6.0 0.00 0.00 0.00 86 1019.0
20260509084132 46 0 5.0 6.0 0.00 0.00 0.00 87 1019.0
20260509083631 46 1 5.0 7.0 0.00 0.00 0.00 84 1019.0
20260509083132 47 19 1.0 3.0 0.00 0.00 0.00 85 1018.9
20260509082632 47 17 5.0 9.0 0.00 0.00 0.00 82 1018.9
20260509082131 48 19 4.0 6.0 0.00 0.00 0.00 83 1018.9
20260509081631 47 17 1.0 3.0 0.00 0.00 0.00 87 1018.9
20260509081132 46 16 3.0 6.0 0.00 0.00 0.00 86 1018.9
20260509080632 47 16 3.0 9.0 0.00 0.00 0.00 87 1018.8
20260509080132 47 17 6.0 8.0 0.00 0.00 0.00 87 1018.8
20260509075132 51 18 3.0 5.0 0.00 0.00 0.00 77 1018.9
20260509074632 52 21 3.0 5.0 0.00 0.00 0.00 76 1018.8
20260509074132 51 21 1.0 3.0 0.00 0.00 0.00 81 1018.9
20260509073632 50 17 1.0 3.0 0.00 0.00 0.00 82 1018.8
20260509073132 49 18 1.0 3.0 0.00 0.00 0.00 84 1018.8
20260509072631 48 17 2.0 5.0 0.00 0.00 0.00 85 1018.8
20260509072132 46 18 1.0 3.0 0.00 0.00 0.00 86 1018.8
20260509071632 46 19 1.0 3.0 0.00 0.00 0.00 85 1018.7
20260509070631 47 19 2.0 6.0 0.00 0.00 0.00 83 1018.6
20260509065132 49 16 2.0 5.0 0.00 0.00 0.00 84 1018.5
20260509064632 50 15 2.0 5.0 0.00 0.00 0.00 82 1018.5
20260509064131 50 13 2.0 7.0 0.00 0.00 0.00 82 1018.6
20260509063631 49 13 2.0 5.0 0.00 0.00 0.00 82 1018.6
20260509063132 49 12 2.0 5.0 0.00 0.00 0.00 81 1018.6
20260509062132 50 12 2.0 3.0 0.00 0.00 0.00 77 1018.5
20260509061632 50 12 2.0 5.0 0.00 0.00 0.00 78 1018.6
20260509061132 50 3 1.0 2.0 0.00 0.00 0.00 79 1018.6
20260509060631 49 0 1.0 3.0 0.00 0.00 0.00 75 1018.7
20260509060132 49 2 1.0 3.0 0.00 0.00 0.00 79 1018.7
20260509055632 48 2 1.0 3.0 0.00 0.00 0.00 75 1018.7
20260509055131 48 4 2.0 3.0 0.00 0.00 0.00 74 1018.7
20260509054632 48 0 2.0 5.0 0.00 0.00 0.00 72 1018.8
20260509054132 49 0 1.0 3.0 0.00 0.00 0.00 73 1018.8
20260509053631 48 0 2.0 3.0 0.00 0.00 0.00 73 1018.8
20260509052131 47 0 1.0 3.0 0.00 0.00 0.00 76 1019.0
20260509051132 46 3 2.0 3.0 0.00 0.00 0.00 79 1018.9
20260509050631 45 1 2.0 3.0 0.00 0.00 0.00 78 1018.9
20260509050132 45 1 2.0 5.0 0.00 0.00 0.00 80 1018.9
20260509045631 44 14 2.0 3.0 0.00 0.00 0.00 83 1018.8
20260509045131 44 1 2.0 3.0 0.00 0.00 0.00 85 1018.8
20260509044632 43 2 2.0 5.0 0.00 0.00 0.00 87 1018.7
20260509044132 43 3 2.0 5.0 0.00 0.00 0.00 88 1018.7
20260509043631 43 2 3.0 6.0 0.00 0.00 0.00 88 1018.7
20260509043132 42 0 2.0 5.0 0.00 0.00 0.00 88 1018.7
20260509042631 42 1 4.0 6.0 0.00 0.00 0.00 88 1018.6
20260509041132 41 1 4.0 6.0 0.00 0.00 0.00 88 1018.7
20260509040631 41 4 3.0 6.0 0.00 0.00 0.00 88 1018.7
20260509040132 40 2 2.0 5.0 0.00 0.00 0.00 88 1018.7
20260509035631 40 4 3.0 5.0 0.00 0.00 0.00 88 1018.6
20260509035132 40 0 3.0 6.0 0.00 0.00 0.00 89 1018.7
20260509034632 40 0 2.0 5.0 0.00 0.00 0.00 89 1018.6
20260509033632 40 0 2.0 5.0 0.00 0.00 0.00 89 1018.7
20260509033132 40 3 1.0 3.0 0.00 0.00 0.00 88 1018.8
20260509032631 40 17 2.0 3.0 0.00 0.00 0.00 88 1018.8
20260509032131 40 11 1.0 3.0 0.00 0.00 0.00 88 1018.7
20260509031631 40 12 1.0 2.0 0.00 0.00 0.00 88 1018.7
20260509031132 40 3 0.0 1.0 0.00 0.00 0.00 87 1018.7
20260509030132 40 16 1.0 2.0 0.00 0.00 0.00 86 1018.8
20260509025632 40 17 1.0 2.0 0.00 0.00 0.00 86 1018.7
20260509024632 40 12 1.0 2.0 0.00 0.00 0.00 85 1018.8
20260509024132 40 8 1.0 3.0 0.00 0.00 0.00 85 1018.9
20260509023631 40 14 1.0 2.0 0.00 0.00 0.00 84 1018.9
20260509023132 40 15 1.0 2.0 0.00 0.00 0.00 84 1018.9
20260509022632 41 15 1.0 3.0 0.00 0.00 0.00 84 1018.9
20260509022132 41 17 1.0 3.0 0.00 0.00 0.00 83 1018.9
20260509021631 41 15 2.0 3.0 0.00 0.00 0.00 83 1018.9
20260509021131 41 16 3.0 5.0 0.00 0.00 0.00 84 1018.9
20260509020632 41 17 3.0 5.0 0.00 0.00 0.00 82 1018.9
20260509020131 41 14 3.0 5.0 0.00 0.00 0.00 81 1018.9
20260509015632 41 17 2.0 3.0 0.00 0.00 0.00 79 1018.9
20260509014632 41 0 1.0 3.0 0.00 0.00 0.00 77 1018.8
20260509014131 41 0 1.0 2.0 0.00 0.00 0.00 80 1018.8
20260509013632 41 0 2.0 2.0 0.00 0.00 0.00 79 1018.8
20260509013132 40 0 0.0 2.0 0.00 0.00 0.00 77 1018.7
20260509012632 40 0 0.0 0.0 0.00 0.00 0.00 77 1018.7
20260509012132 40 0 0.0 0.0 0.00 0.00 0.00 78 1018.7
20260509011631 40 0 0.0 2.0 0.00 0.00 0.00 81 1018.8
20260509011131 40 0 1.0 2.0 0.00 0.00 0.00 83 1018.8
20260509010631 40 0 0.0 2.0 0.00 0.00 0.00 84 1018.8
20260509010131 41 0 0.0 0.0 0.00 0.00 0.00 86 1018.8
20260509005632 41 0 0.0 0.0 0.00 0.00 0.00 87 1018.8
20260509005131 41 0 0.0 0.0 0.00 0.00 0.00 87 1018.8
20260509004631 41 0 0.0 1.0 0.00 0.00 0.00 86 1018.8
20260509004132 41 0 1.0 3.0 0.00 0.00 0.00 86 1018.8
20260509002631 41 0 1.0 3.0 0.00 0.00 0.00 84 1018.9
20260509002131 42 0 0.0 2.0 0.00 0.00 0.00 84 1018.9
20260509001631 42 0 2.0 3.0 0.00 0.00 0.00 84 1019.0
20260509001131 42 0 2.0 3.0 0.00 0.00 0.00 85 1019.0
20260509000131 42 0 1.0 3.0 0.00 0.00 0.00 82 1019.1
20260508235631 42 0 2.0 3.0 0.00 0.00 0.00 82 1019.1
20260508235131 42 0 2.0 3.0 0.00 0.00 0.00 81 1019.1
20260508234631 42 0 2.0 3.0 0.00 0.00 0.00 81 1019.1
20260508234131 42 0 2.0 3.0 0.00 0.00 0.00 81 1019.1
20260508233631 42 0 2.0 3.0 0.00 0.00 0.00 80 1019.2
20260508232632 42 0 2.0 3.0 0.00 0.00 0.00 79 1019.2
20260508231631 42 0 1.0 3.0 0.00 0.00 0.00 81 1019.3
20260508231131 42 0 2.0 3.0 0.00 0.00 0.00 82 1019.4
20260508230631 42 0 2.0 3.0 0.00 0.00 0.00 83 1019.4
20260508230132 42 0 2.0 3.0 0.00 0.00 0.00 85 1019.4
20260508225631 42 0 3.0 3.0 0.00 0.00 0.00 85 1019.5
20260508225132 42 0 3.0 3.0 0.00 0.00 0.00 84 1019.6
20260508224631 42 0 2.0 3.0 0.00 0.00 0.00 86 1019.6
20260508224132 42 0 3.0 3.0 0.00 0.00 0.00 86 1019.7
20260508223632 42 0 3.0 3.0 0.00 0.00 0.00 86 1019.6
20260508222632 42 0 3.0 6.0 0.00 0.00 0.00 86 1019.7
20260508222131 42 0 4.0 5.0 0.00 0.00 0.00 87 1019.7
20260508221632 42 0 3.0 3.0 0.00 0.00 0.00 88 1019.7
20260508221131 42 0 2.0 3.0 0.00 0.00 0.00 88 1019.6
20260508220631 42 0 4.0 6.0 0.00 0.00 0.00 88 1019.5
20260508220132 42 0 3.0 5.0 0.00 0.00 0.00 88 1019.6
20260508215631 42 0 3.0 5.0 0.00 0.00 0.00 88 1019.6
20260508214631 42 0 3.0 5.0 0.00 0.00 0.00 88 1019.6
20260508214131 42 0 2.0 3.0 0.00 0.00 0.00 88 1019.6
20260508213631 43 0 2.0 3.0 0.00 0.00 0.00 88 1019.6
20260508212631 43 0 3.0 5.0 0.00 0.00 0.00 87 1019.5
20260508211632 43 0 0.0 2.0 0.00 0.00 0.00 86 1019.5
20260508210631 43 0 3.0 3.0 0.00 0.00 0.00 86 1019.4
20260508205132 44 0 3.0 3.0 0.00 0.00 0.00 82 1019.4
20260508204631 44 0 2.0 3.0 0.00 0.00 0.00 78 1019.4
20260508204131 44 0 2.0 3.0 0.00 0.00 0.00 84 1019.4
20260508203631 43 0 2.0 3.0 0.00 0.00 0.00 78 1019.4
20260508203130 43 0 2.0 3.0 0.00 0.00 0.00 82 1019.4
20260508202631 44 0 3.0 3.0 0.00 0.00 0.00 85 1019.4
20260508202130 44 0 2.0 3.0 0.00 0.00 0.00 85 1019.4
20260508201631 44 0 5.0 6.0 0.00 0.00 0.00 85 1019.4
20260508201131 43 0 2.0 5.0 0.00 0.00 0.00 84 1019.3
20260508200631 43 0 6.0 6.0 0.00 0.00 0.00 83 1019.3
20260508200131 43 0 5.0 6.0 0.00 0.00 0.00 85 1019.2
20260508195631 42 0 6.0 8.0 0.00 0.00 0.00 87 1019.1
20260508195131 41 0 6.0 7.0 0.00 0.00 0.00 88 1019.0
20260508194631 41 4 1.0 6.0 0.00 0.00 0.00 85 1019.0
20260508194130 41 6 3.0 6.0 0.00 0.00 0.00 85 1019.0
20260508193631 41 8 3.0 6.0 0.00 0.00 0.00 85 1018.9
20260508193131 41 8 2.0 5.0 0.00 0.00 0.00 85 1018.9
20260508192631 42 11 3.0 7.0 0.00 0.00 0.00 85 1018.9
20260508192131 42 12 2.0 7.0 0.00 0.00 0.00 85 1018.9
20260508191631 42 11 2.0 7.0 0.00 0.00 0.00 86 1018.9
20260508190631 42 16 2.0 5.0 0.00 0.00 0.00 88 1018.6
20260508190131 42 14 2.0 5.0 0.00 0.00 0.00 88 1018.5
20260508185631 42 15 2.0 3.0 0.00 0.00 0.00 87 1018.5
20260508185131 42 16 1.0 3.0 0.00 0.00 0.00 86 1018.5
20260508183131 43 16 2.0 5.0 0.00 0.00 0.00 73 1018.3
20260508182631 43 1 1.0 3.0 0.00 0.00 0.00 71 1018.2
20260508182131 44 6 2.0 3.0 0.00 0.00 0.00 71 1018.1
20260508181630 44 10 2.0 3.0 0.00 0.00 0.00 70 1018.1
20260508175631 45 13 1.0 3.0 0.00 0.00 0.00 67 1018.0
20260508175131 45 15 1.0 3.0 0.00 0.00 0.00 67 1017.9
20260508173631 46 17 0.0 2.0 0.00 0.00 0.00 76 1017.8
20260508172131 46 16 1.0 2.0 0.00 0.00 0.00 74 1017.6
20260508171631 46 14 1.0 2.0 0.00 0.00 0.00 86 1017.6
20260508171130 45 15 0.0 2.0 0.00 0.00 0.00 84 1017.7
20260508170631 45 16 0.0 0.0 0.00 0.00 0.00 86 1017.7
20260508170130 45 14 0.0 2.0 0.00 0.00 0.00 87 1017.7
20260508165631 46 15 0.0 0.0 0.00 0.00 0.00 88 1017.7
20260508165130 46 15 0.0 2.0 0.00 0.00 0.00 88 1017.6
20260508164631 45 15 1.0 3.0 0.00 0.00 0.00 88 1017.6
20260508164131 45 14 0.0 1.0 0.00 0.00 0.00 88 1017.5
20260508163631 45 15 0.0 2.0 0.00 0.00 0.00 88 1017.5
20260508162631 45 14 2.0 3.0 0.00 0.00 0.00 88 1017.5
20260508162131 45 15 2.0 3.0 0.00 0.00 0.00 88 1017.5
20260508161631 45 16 0.0 2.0 0.00 0.00 0.00 88 1017.5
20260508161131 45 16 1.0 3.0 0.00 0.00 0.00 88 1017.6
20260508160630 45 15 3.0 6.0 0.00 0.00 0.00 88 1017.6
20260508160131 45 16 2.0 3.0 0.00 0.00 0.00 88 1017.6
20260508155631 44 16 2.0 5.0 0.00 0.00 0.00 87 1017.5
20260508155131 44 15 3.0 3.0 0.00 0.00 0.00 88 1017.5
20260508154630 44 6 2.0 5.0 0.00 0.00 0.00 88 1017.5
20260508154131 45 14 2.0 3.0 0.00 0.00 0.00 88 1017.5
20260508153131 46 15 2.0 5.0 0.00 0.00 0.00 88 1017.6
20260508152130 46 14 2.0 5.0 0.00 0.00 0.00 87 1017.5
20260508151631 46 15 2.0 3.0 0.00 0.00 0.00 88 1017.6
20260508151130 46 15 2.0 3.0 0.00 0.00 0.00 88 1017.6
20260508150631 46 15 2.0 5.0 0.00 0.00 0.00 87 1017.7
20260508150131 46 15 2.0 5.0 0.00 0.00 0.00 87 1017.7
20260508145631 45 15 3.0 6.0 0.00 0.00 0.00 86 1017.7
20260508145131 46 13 4.0 6.0 0.00 0.00 0.00 84 1017.7
20260508144631 46 14 2.0 7.0 0.00 0.00 0.00 88 1017.7
20260508142631 45 14 3.0 3.0 0.00 0.00 0.00 87 1018.0
20260508142130 46 14 3.0 3.0 0.00 0.00 0.00 87 1018.0
20260508141631 47 14 2.0 3.0 0.00 0.00 0.00 85 1018.0
20260508141131 48 13 1.0 5.0 0.00 0.00 0.00 86 1018.1
20260508140631 49 13 3.0 5.0 0.00 0.00 0.00 84 1018.1
20260508135631 48 13 1.0 3.0 0.00 0.00 0.00 79 1018.2
20260508135130 48 14 1.0 3.0 0.00 0.00 0.00 74 1018.3
20260508134631 48 13 1.0 3.0 0.00 0.00 0.00 84 1018.4
20260508134131 47 13 1.0 3.0 0.00 0.00 0.00 85 1018.3
20260508133630 47 12 1.0 2.0 0.00 0.00 0.00 87 1018.4
20260508133131 47 14 3.0 6.0 0.00 0.00 0.00 86 1018.5
20260508132631 47 13 3.0 6.0 0.00 0.00 0.00 86 1018.4
20260508132130 47 10 2.0 3.0 0.00 0.00 0.00 86 1018.4
20260508131631 47 0 2.0 3.0 0.00 0.00 0.00 85 1018.5
20260508131130 47 14 2.0 6.0 0.00 0.00 0.00 85 1018.5
20260508130630 46 15 1.0 3.0 0.00 0.00 0.00 87 1018.5
20260508130131 46 15 2.0 3.0 0.00 0.00 0.00 87 1018.5